TimePDT,TemperatureF,Dew PointF,Humidity,Sea Level PressureIn,VisibilityMPH,Wind Direction,Wind SpeedMPH,Gust SpeedMPH,PrecipitationIn,Events,Conditions,WindDirDegrees,DateUTC
12:53 AM,54.0,30.9,41,29.87,10.0,North,5.8,-,N/A,,Clear,350,2013-05-06 07:53:00
1:53 AM,55.9,32.0,40,29.87,10.0,East,6.9,-,N/A,,Clear,80,2013-05-06 08:53:00
2:53 AM,52.0,30.9,45,29.87,10.0,NNE,4.6,-,N/A,,Clear,30,2013-05-06 09:53:00
3:53 AM,52.0,32.0,47,29.86,10.0,NE,6.9,-,N/A,,Clear,40,2013-05-06 10:53:00
4:53 AM,50.0,32.0,50,29.88,10.0,NE,5.8,-,N/A,,Clear,50,2013-05-06 11:53:00
5:53 AM,51.1,33.1,50,29.88,10.0,NE,8.1,-,N/A,,Partly Cloudy,40,2013-05-06 12:53:00
6:53 AM,54.0,33.1,45,29.88,10.0,NE,6.9,-,N/A,,Partly Cloudy,40,2013-05-06 13:53:00
7:53 AM,55.9,34.0,44,29.88,10.0,NE,10.4,-,N/A,,Clear,50,2013-05-06 14:53:00
8:53 AM,60.1,34.0,38,29.88,10.0,NE,8.1,-,N/A,,Clear,40,2013-05-06 15:53:00
9:53 AM,64.9,35.1,33,29.88,10.0,NE,5.8,-,N/A,,Clear,50,2013-05-06 16:53:00
10:53 AM,69.1,35.1,29,29.86,10.0,NE,8.1,-,N/A,,Clear,40,2013-05-06 17:53:00
11:53 AM,73.0,33.1,23,29.85,10.0,East,6.9,-,N/A,,Clear,80,2013-05-06 18:53:00
12:53 PM,75.9,34.0,22,29.83,10.0,Variable,6.9,-,N/A,,Clear,0,2013-05-06 19:53:00
1:53 PM,79.0,28.9,16,29.80,10.0,Variable,5.8,-,N/A,,Partly Cloudy,0,2013-05-06 20:53:00
2:53 PM,80.1,26.1,14,29.79,10.0,Calm,Calm,-,N/A,,Partly Cloudy,0,2013-05-06 21:53:00
3:53 PM,81.0,26.1,13,29.76,10.0,NE,5.8,-,N/A,,Partly Cloudy,50,2013-05-06 22:53:00
4:53 PM,80.1,21.9,12,29.75,10.0,WNW,5.8,-,N/A,,Partly Cloudy,300,2013-05-06 23:53:00
5:53 PM,80.1,25.0,13,29.74,10.0,NNW,4.6,-,N/A,,Partly Cloudy,330,2013-05-07 00:53:00
6:53 PM,78.8,24.8,14,29.73,10.0,Calm,Calm,-,N/A,,Partly Cloudy,0,2013-05-07 01:53:00
7:53 PM,75.2,28.4,18,29.72,10.0,NNW,4.6,-,N/A,,Partly Cloudy,340,2013-05-07 02:53:00
8:53 PM,68.0,32.0,26,29.74,10.0,WSW,5.8,-,N/A,,Scattered Clouds,240,2013-05-07 03:53:00
9:53 PM,62.6,33.8,34,29.75,10.0,SW,5.8,-,N/A,,Partly Cloudy,220,2013-05-07 04:53:00
10:53 PM,55.0,36.0,49,29.76,10.0,West,6.9,-,N/A,,Clear,260,2013-05-07 05:53:00
11:53 PM,59.0,30.9,35,29.75,10.0,SSW,3.5,-,N/A,,Clear,210,2013-05-07 06:53:00